Overview Statistics Trail Chart Weather Telemetry Raw packets
 

This is the latest recevied weather packets stored in our database for station/object KC2GYU. If no packets are shown the sender has not sent any weather packets the latest 10 day(s).

<< 70 71 72 73 74 75 76 >>
Time Temp. Humidity Pressure Rain* Wind** Luminosity Snow
1777534730 10° C 99% 1008.1 hPa 0 mm - 0 W/m² -
1777534426 10° C 99% 1007.9 hPa 0 mm - 0 W/m² -
1777534124 10° C 99% 1007.9 hPa 0 mm - 0 W/m² -
1777533822 10° C 99% 1008.3 hPa 0 mm - 0 W/m² -
1777533518 10° C 99% 1008.3 hPa 0 mm - 0 W/m² -
1777533214 10° C 99% 1008.2 hPa 1.27 mm - 0 W/m² -
1777532911 10° C 99% 1008.4 hPa 1.27 mm - 0 W/m² -
1777532608 10° C 99% 1008.1 hPa 0 mm - 0 W/m² -
1777532305 10° C 99% 1008.4 hPa 0 mm - 0 W/m² -
1777532000 10° C 99% 1008.5 hPa 0 mm - 0 W/m² -
1777531697 10° C 99% 1008.8 hPa 0 mm - 0 W/m² -
1777531394 10° C 99% 1008 hPa 0 mm - 0 W/m² -
1777531092 10° C 99% 1007.7 hPa 0 mm - 0 W/m² -
1777530789 10° C 99% 1007.9 hPa 0 mm - 0 W/m² -
1777530487 10° C 99% 1007.9 hPa 1.78 mm - 0 W/m² -
1777530182 10° C 99% 1007.9 hPa 4.83 mm - 0 W/m² -
1777529880 10° C 99% 1007.9 hPa 3.05 mm - 0 W/m² -
1777529576 10° C 99% 1008.2 hPa 0 mm - 0 W/m² -
1777529274 10° C 99% 1008.2 hPa 0 mm - 0 W/m² -
1777528969 10° C 99% 1008.1 hPa 0 mm - 0 W/m² -
1777528665 10° C 99% 1008.2 hPa 0 mm - 0 W/m² -
1777528363 10° C 99% 1008.1 hPa 0 mm - 0 W/m² -
1777528061 10° C 99% 1008.3 hPa 0 mm - 0 W/m² -
1777527752 10° C 99% 1008.4 hPa 0 mm - 0 W/m² -
1777527447 9.44° C 99% 1008.3 hPa 0 mm - 0 W/m² -

* Rain latest hour (hover to see other rain measurements)
** Current wind speed in m/s (hover to see current wind gust speed)